Terminal Aerodrome Forecast
Issued by NWS Charleston, WV

Current Version | Previous Version | Graphics & Text | Print | Product List | Glossary On
Versions: 1 2 3 4 5 6 7 8 9 10 11 12 13 14 15 16 17 18 19 20 21 22 23 24 25 26 27 28 29
000
FTUS41 KRLX 251700 CCA
TAFHTS
TAF COR
KHTS 251756Z 2518/2618 05007KT 2SM SHRA BKN006 OVC025
     FM251830 04006KT 5SM BR BKN008
     FM252000 03006KT 5SM BR BKN008
     FM260200 04009KT 5SM SHRA BR OVC008
     FM260400 07004G10KT 5SM SHRA BR OVC004
     FM260800 36007KT 6SM -SHRA BR OVC020
     FM260900 35007KT P6SM OVC030
     FM261500 36004G11KT P6SM SCT045=

USA.gov is the U.S. government's official web portal to all federal, state and local government web resources and services.